Probability
0 0 0 0 0 0 0 0 0 0 0 0 0 0 0 0 0 0 0 0 0 0 0 0 0 0 0 0 0 0 0 0 0 0 0 0 0 0 0 0 0 0 0
0 0 0 0 0 0 0 0 0 0 0 0 0 0 0 0 0 0 0 0 0 0 0 0 0 0 0 0 0 0 0 0 0 0 0 0 0 0 0 0 0 0 0
0 0 0 0 0 0 0 0 0 0 0 0 0 0 0 0 0 0 0 0 0 0 0 0 0 0 0 0 0 0 0 0 0 0 0 0 0 0 0 0 0 0 0
0 0 0 0 0 0 0 0 0 0 0 0 0 0 0 0 0 0 0 0 0 0 0 0 0 0 0 0 0 0 0 0 0 0 0 0 0 0 0 0 0 0 0
0 0 0 0 0 0 0 0 0 0 0 0 0 0 0 0 0 0 0 0 0 0 0 0 0 0 0 0 0 0 0 0 0 0 0 0 0 0 0 0 0 0 0
0 0 0 0 0 0 0 0 0 0 0 0 0 0 0 0 0 0 0 0 0 0 0 0 0 0 0 0 0 0 0 0 0 0 0 0 0 0 0 0 0 0 0
0 0 0 0 0 0 0 0 0 0 0 0 0 0 0 0 0 0 0 0 0 0 0 0 0 0 0 0 0 0 0 0 0 0 0 0 0 0 0 0 0 0 0
0 0 0 0 0 0 0 0 0 0 0 0 0 0 0 0 0 0 0 0 0 0 0 0 0 0 0 0 0 0 0 0 0 0 0 0 0 0 0 0 0 0 0
0 0 0 0 0 0 0 0 0 0 0 0 0 0 0 0 0 0 0 0 0 0 0 0 0 0 0 0 0 0 0 0 0 0 0 0 0 0 0 0 0 0 0
0 0 0 0 0 0 0 0 0 0 0 0 0 0 0 0 0 0 0 0 0 0 0 0 0 0 0 0 0 0 0 0 0 0 0 0 0 0 0 0 0 0 0
0 0 0 0 0 0 0 0 0 0 0 0 0 0 0 0 0 0 0 0 0 0 0 0 0 0 0 0 0 0 0 0 0 0 0 0 0 0 0 0 0 0 0
0 0 0 0 0 0 0 0 0 0 0 0 0 0 0 0 0 0 0 0 0 0 0 0 0 0 0 0 0 0 0 0 0 0 0 0 0 0 0 0 0 0 0
0 0 0 0 0 0 0 0 0 0 0 0 0 0 0 0 0 0 0 0 0 0 0 0 0 0 0 0 0 0 0 0 0 0 0 0 0 0 0 0 0 0 0
0 0 0 0 0 0 0 0 0 0 0 0 0 0 0 0 0 0 0 0 0 0 0 0 0 0 0 0 0 0 0 0 0 0 0 0 0 0 0 0 0 0 0
0 0 0 0 0 0 0 0 0 0 0 0 0 0 0 0 0 0 0 0 0 0 0 0 0 0 0 0 0 0 0 0 0 0 0 0 0 0 0 0 0 0 0
0 0 0 0 0 0 0 0 0 0 0 0 0 0 0 0 0 0 0 0 0 0 0 0 0 0 0 0 0 0 0 0 0 0 0 0 0 0 0 0 0 0 0
0 0 0 0 0 0 0 0 0 0 0 0 0 0 0 0 0 0 0 0 0 0 0 0 0 0 0 0 0 0 0 0 0 0 0 0 0 0 0 0 0 0 0
0 0 0 0 0 0 0 0 0 0 0 0 0 0 0 0 0 0 0 0 0 0 0 0 0 0 0 0 0 0 0 0 0 0 0 0 0 0 0 0 0 0 0
0 0 0 0 0 0 0 0 0 0 0 0 0 0 0 0 0 0 0 0 0 0 0 0 0 0 0 0 0 0 0 0 0 0 0 0 0 0 0 0 0 0 0
0 0 0 0 0 0 0 0 0 0 0 0 0 0 0 0 0 0 0 0 0 0 0 0 0 0 0 0 0 0 0 0 0 0 0 0 0 0 0 0 0 0 0
0 0 0 0 0 0 0 0 0 0 0 0 0 0 0 0 0 0 0 0 0 0 0 0 0 0 0 0 0 0 0 0 0 0 0 0 0 0 0 0 0 0 0
0 0 0 0 0 0 0 0 0 0 0 0 0 0 0 0 0 0 0 0 0 0 0 0 0 0 0 0 0 0 0 0 0 0 0 0 0 0 0 0 0 0 0
0 0 0 0 0 0 0 0 0 0 0 0 0 0 0 0 0 0 0 0 0 0 0 0 0 0 0 0 0 0 0 0 0 0 0 0 0 0 0 0 0 0 0
0 0 0 0 0 0 0 0 0 0 0 0 0 0 0 0 0 0 0 0 0 0 0 0 0 0 0 0 0 0 0 0 0 0 0 0 0 0 0 0 0 0 0
0 0 0 0 0 0 0 0 0 0 0 0 0 0 0 0 0 0 0 0 0 0 0 0 0 0 0 0 0 0 0 0 0 0 0 0 0 0 0 0 0 0 0
0 0 0 0 0 0 0 0 0 0 0 0 0 0 0 0 0 0 0 0 0 0 0 0 0 0 0 0 0 0 0 0 0 0 0 0 0 0 0 0 0 0 0
Wind_Speed
9 7 6 5 3 1 0 1 2 4 5 6 7 7 8 9 9 9 11 11 12 12 12 13 13 14 12 11 12 12 12 11 14 13 13 14 17 16 14 14 14 14 12
8 7 6 4 2 1 2 3 4 5 6 7 8 9 10 10 10 11 12 13 13 14 14 14 15 13 15 13 12 13 12 12 13 16 14 14 16 15 15 15 14 12 12
7 6 4 2 1 2 3 4 6 7 8 9 9 10 11 11 12 12 12 13 13 14 14 15 15 15 15 13 13 12 11 11 12 13 14 12 13 13 14 14 15 11 12
5 4 2 1 2 3 4 6 7 8 9 10 11 11 12 12 12 12 12 13 14 14 14 15 15 15 15 14 12 13 12 12 12 12 12 12 12 14 12 11 10 9 9
3 2 0 2 3 4 6 7 8 9 10 10 10 11 11 10 8 10 13 14 15 15 15 15 15 16 18 15 12 12 12 11 11 11 12 12 13 12 10 8 8 8 8
2 1 2 3 4 6 6 7 8 8 8 8 9 9 10 7 8 9 13 15 15 15 15 14 14 16 16 17 19 20 18 16 14 13 12 13 15 14 11 8 7 8 6
1 2 3 4 6 6 7 6 6 6 7 7 8 9 10 6 4 8 13 15 16 14 14 13 12 13 16 15 15 18 18 21 21 16 15 15 15 13 11 10 8 8 5
1 2 4 5 5 5 5 6 6 6 6 7 7 9 10 7 3 8 15 15 14 13 14 15 15 15 14 14 15 15 16 15 14 10 10 11 11 11 9 8 6 3 1
2 3 5 5 5 5 6 6 5 6 6 7 7 9 10 9 5 9 14 13 12 14 15 15 16 16 15 15 15 15 15 12 9 8 9 9 10 8 5 2 2 2 2
4 4 5 6 6 6 5 5 5 6 7 8 8 9 9 10 8 10 13 10 11 12 13 14 16 15 16 17 14 11 11 9 6 4 4 5 5 5 6 3 2 1 1
5 6 7 7 6 5 5 5 6 6 7 8 8 8 8 8 9 8 12 11 10 11 11 11 10 15 16 15 11 7 6 5 3 2 3 4 4 5 6 5 5 4 3
6 7 6 5 5 4 5 5 6 7 7 8 8 9 7 8 9 11 15 16 16 13 11 9 10 13 11 10 6 5 4 2 2 2 3 4 5 5 6 7 8 8 7
6 6 5 5 5 5 5 6 6 6 7 7 8 9 9 9 9 12 14 17 18 12 10 15 14 12 8 6 10 8 5 4 3 4 5 6 6 6 5 5 6 7 10
6 5 4 4 4 5 5 6 6 6 7 8 8 9 9 9 10 11 11 11 12 11 10 11 10 7 6 6 6 6 6 6 5 6 6 5 5 5 5 5 5 5 7
5 4 4 5 5 4 4 5 6 7 7 7 7 8 8 9 12 17 12 10 10 11 10 6 6 5 6 6 6 6 6 6 6 6 6 6 6 6 6 6 6 7 8
5 5 4 5 5 5 5 3 2 3 3 5 7 8 8 10 15 17 17 16 16 16 9 7 7 7 6 6 6 6 7 7 7 7 7 7 6 6 6 6 7 8 8
7 6 5 6 6 6 6 6 5 2 2 4 7 11 13 15 15 16 17 16 13 13 8 8 7 7 6 6 6 6 7 7 7 7 7 7 6 6 6 7 7 8 9
7 6 6 6 6 6 6 6 6 7 7 7 7 11 15 15 14 15 16 12 10 10 8 8 7 7 6 6 6 6 6 7 7 7 7 6 6 6 7 8 8 10 10
8 7 6 6 6 7 6 6 6 7 7 7 8 10 13 13 11 13 13 10 9 9 9 8 8 7 6 6 5 6 6 6 7 6 6 7 6 7 7 8 10 12 11
7 6 7 6 7 7 7 7 7 7 7 7 7 9 11 10 9 10 10 9 9 9 9 8 8 8 7 6 5 5 5 6 6 6 6 6 6 6 8 9 9 10 10
5 5 1 6 8 8 7 7 7 7 7 6 7 9 13 9 9 10 9 9 9 9 9 8 8 8 7 6 5 6 6 5 5 6 6 6 6 6 7 8 9 10 10
6 6 7 8 8 8 8 8 8 8 8 8 7 9 12 9 9 9 9 9 9 8 8 7 7 7 7 6 6 5 5 5 5 5 6 6 6 7 7 8 9 9 10
6 7 7 7 7 6 7 8 8 8 7 7 8 8 8 8 8 9 9 9 8 8 8 8 8 8 7 6 6 5 5 5 5 5 5 5 6 7 8 9 11 11 10
7 7 7 7 7 7 8 8 8 8 8 8 7 7 8 8 8 9 9 9 8 8 8 8 8 10 12 9 6 6 6 6 6 4 5 6 6 7 8 9 10 12 11
7 7 8 8 8 8 8 8 9 9 9 8 8 9 9 9 9 9 8 8 9 9 10 10 8 9 11 12 10 8 8 8 7 6 3 5 8 8 8 9 9 10 10
8 8 8 7 8 8 8 8 8 9 8 8 9 9 9 10 10 9 9 9 9 9 9 8 11 11 13 10 10 9 8 8 9 9 4 5 7 8 8 8 10 9 9
Wind_Direction
128 120 116 111 105 105 336 299 299 298 297 291 295 295 292 290 288 286 286 291 289 290 292 293 295 297 294 294 292 286 282 280 279 281 280 281 281 280 280 278 278 275 271
127 122 117 115 122 244 267 283 284 284 287 292 293 290 289 289 289 288 290 293 294 295 298 300 299 299 296 293 289 287 286 283 279 281 280 280 279 279 276 275 275 274 276
124 122 120 133 220 272 285 288 287 285 287 290 291 291 292 293 292 292 294 296 298 300 301 300 299 298 294 291 291 289 286 281 277 278 281 283 282 279 279 276 276 278 279
114 113 117 233 284 291 294 291 288 288 290 291 293 296 297 299 299 304 308 307 304 302 300 297 295 293 292 293 290 285 281 279 278 278 281 282 281 280 276 277 280 283 284
106 100 356 286 289 290 291 291 291 292 294 298 300 302 306 305 334 340 321 310 307 304 300 298 296 296 291 285 282 281 282 280 280 280 281 282 281 282 281 281 281 285 282
82 0 328 312 302 296 296 297 300 305 312 318 320 319 318 333 33 350 320 311 307 303 302 302 299 292 290 288 280 279 281 282 283 282 282 281 283 285 285 280 275 273 268
37 336 326 313 306 308 313 322 333 338 341 336 333 330 327 350 36 332 320 310 303 303 303 299 295 294 293 288 289 287 282 278 275 277 279 280 282 281 279 274 264 261 258
342 330 318 316 325 341 359 13 8 357 350 343 339 337 328 339 14 323 322 306 304 304 301 297 295 294 293 294 296 291 286 283 279 279 280 284 286 285 276 268 266 253 213
350 346 353 357 11 32 38 27 12 356 351 339 347 341 332 333 356 325 317 315 309 309 307 303 302 300 298 293 291 289 287 287 282 277 284 297 304 311 307 270 223 216 226
21 32 42 50 57 54 40 17 8 352 352 345 352 342 334 332 335 310 309 314 310 309 306 303 300 297 298 296 292 286 285 292 307 314 320 331 343 6 15 19 359 303 277
61 73 74 72 66 49 30 15 2 357 360 352 348 341 336 333 326 323 319 320 316 309 304 304 305 307 306 305 299 288 286 295 322 0 9 7 14 28 34 35 27 14 13
86 86 78 61 40 37 23 16 11 358 358 357 349 342 339 337 336 342 326 319 318 313 309 312 317 324 332 346 353 9 4 3 48 43 36 32 32 38 42 44 47 49 47
92 85 74 58 40 23 13 17 13 9 0 355 349 344 343 343 345 345 330 322 319 319 320 327 335 347 359 22 36 36 42 49 47 47 44 38 34 40 47 51 56 60 57
89 81 67 48 42 39 13 19 17 9 2 356 352 345 341 340 347 345 334 330 330 334 334 335 344 11 34 34 35 43 46 42 38 46 46 44 43 48 47 44 49 56 62
83 71 56 48 37 26 37 32 18 34 15 354 352 341 339 342 340 331 333 340 343 342 334 348 10 19 31 35 38 44 45 44 45 47 49 50 50 49 48 49 58 63 64
81 64 48 42 33 20 24 64 125 33 8 349 353 349 347 344 334 339 344 343 345 345 355 12 17 20 26 31 36 42 42 43 47 48 48 50 49 49 54 56 60 65 66
63 47 42 36 31 26 22 15 18 28 17 15 8 359 353 346 346 348 348 344 356 359 12 15 16 18 22 29 37 44 46 48 48 52 54 51 49 52 57 60 62 65 64
71 58 34 41 30 27 23 21 18 12 8 8 12 8 353 347 351 356 352 357 9 11 11 11 12 14 21 28 38 45 47 50 48 49 51 53 54 54 59 63 65 72 72
47 40 34 33 30 31 27 29 27 24 18 6 4 4 354 351 359 8 5 13 8 6 4 5 8 12 18 27 39 50 53 51 49 47 48 51 55 62 70 74 76 73 75
77 34 358 21 32 32 31 31 32 27 20 11 10 6 354 358 7 7 8 7 6 3 1 1 5 11 17 23 34 49 57 56 51 47 46 51 56 63 69 74 78 79 79
67 75 13 29 36 29 31 33 36 31 21 15 13 14 1 3 6 4 4 4 3 0 356 357 2 8 15 21 32 48 55 54 50 45 46 53 61 64 67 73 78 83 87
43 40 39 38 40 31 25 35 38 36 26 19 9 11 8 10 8 4 2 360 358 358 356 356 1 5 10 21 29 42 51 50 45 41 44 53 61 64 67 70 77 85 91
39 39 43 40 41 46 39 42 39 38 35 28 17 12 11 8 5 3 1 358 358 360 0 2 5 8 11 19 27 32 38 33 29 29 42 57 65 66 68 71 77 86 89
41 38 41 42 40 40 39 40 41 40 37 33 27 20 17 13 11 9 6 1 1 3 5 5 8 11 17 20 24 31 25 10 6 17 42 67 72 73 76 78 81 88 87
43 40 43 44 39 40 41 40 38 37 36 32 27 24 22 21 19 16 11 6 7 9 11 11 9 8 14 23 25 24 12 5 2 351 43 78 83 82 85 87 88 94 98
47 44 46 47 45 40 39 40 39 36 34 31 29 27 24 22 22 19 16 13 12 13 14 11 12 18 17 19 20 13 8 4 358 346 1 83 84 84 88 90 93 91 92